Weather in Stanovshchikovo

Russia / Kostroma Oblast     57°43′06″N   40°57′06″E
temp.,
°C
wind,
m/s
gust,
m/s
humid.,
%
clouds,
%
prec.,
mm/h
press.,
hPa
HPBL,
m
26 july, mon
mon2600:00+14sw116088 0.0 102112
03:00+15wsw345199 0.0 102180
06:00+16wsw365198 0.0 1021185
09:00+21wnw354452 0.0 1021725
12:00+23w573985 0.0 10211699
15:00+24wnw5837100 0.0 10202618
18:00+23wnw57405 0.0 10191784
21:00+18wsw335815 0.0 102036
27 july, tue
tue2700:00+15wnw337034 0.0 102039
03:00+13nw22870 0.0 102125
06:00+15nnw238114 0.0 1021124
09:00+21nnw235646 0.0 1021605
12:00+22n12515 0.0 1020755
15:00+26nnw254096 0.0 10182259
18:00+16e599226 4.1 1018166
21:00+15ssw2290100 4.3 101822
28 july, wed
wed2800:00+15sw22905 0.1 101825
03:00+14nnw129112 0.2 101810
06:00+16wsw11853 0.0 101743
09:00+21sw226253 0.0 1016463
12:00+26wsw23402 0.0 10141687
15:00+28wnw3535100 0.0 10112468
18:00+20ne126596 0.2 101050
21:00+19wsw51079100 0.4 1010267
29 july, thu
thu2900:00+15wsw3793100 0.2 1009140
03:00+15sw359595 0.2 100890
06:00+17sse258996 0.0 1007177
09:00+21se466898 0.0 10051041
12:00+19sse4578100 0.1 1005558
15:00+22s4468100 0.2 10041055
18:00+21wsw447495 0.3 1003771
21:00+17wsw369712 0.8 1003223
30 july, fri
fri3000:00+16sw3109712 0.0 1003220
03:00+15w411950 0.0 1004254
06:00+16w410910 0.0 1005304
09:00+21w69610 0.0 1006939
12:00+26w710350 0.0 10062111
15:00+28wnw810316 0.0 10062830
18:00+26nw583738 0.0 10061739
21:00+19ese115943 0.0 100711